Theta_e
313 313 313 313 313 312 312 312 312 312 312 312 312 313 313 313 312 312 312 313 313 314 314 315 316 317 312 306 305 319 329 327 318 311 309 303 298 295 291 297 299 298 300 302 305 306 308
313 313 313 313 313 313 312 312 312 312 312 312 312 312 311 311 311 312 312 313 313 313 314 315 316 318 309 301 308 312 317 312 311 304 305 303 299 301 296 295 294 297 298 300 302 302 304
313 313 313 313 313 313 312 312 312 312 312 312 312 312 312 311 312 311 313 313 313 313 314 316 317 315 306 302 307 307 308 302 306 308 304 305 305 300 298 295 299 298 294 297 299 301 300
314 313 313 313 313 312 312 312 312 312 312 312 312 311 311 311 311 311 312 313 312 313 315 318 318 310 302 312 305 305 305 305 308 307 306 305 305 300 296 298 297 293 292 287 295 300 302
313 313 313 313 312 312 311 311 311 312 312 312 311 311 310 311 311 312 312 312 312 314 316 318 310 305 303 310 306 306 303 303 306 307 307 309 301 297 297 291 286 288 285 287 292 298 298
313 313 313 313 313 311 311 312 312 312 311 312 312 312 311 311 311 312 311 312 313 313 315 315 312 302 306 302 306 306 306 307 304 304 303 302 296 292 290 287 281 285 286 289 290 293 294
313 313 313 313 312 311 312 312 312 312 312 312 312 312 311 312 312 311 308 306 303 302 305 305 306 303 305 307 308 304 308 305 304 300 293 296 290 286 290 293 294 293 291 290 293 297 294
312 312 312 312 312 311 311 311 312 313 312 312 312 312 312 312 311 311 305 302 303 302 296 304 304 304 306 305 299 303 307 299 297 291 294 291 286 294 296 296 294 293 290 289 293 296 294
311 311 311 311 311 311 312 311 313 312 312 312 311 311 311 311 310 308 305 307 309 307 294 300 305 301 302 302 299 300 303 300 294 291 291 288 291 296 295 293 291 291 289 290 290 294 295
311 311 311 310 310 312 312 312 313 313 312 311 311 311 311 310 306 307 305 309 309 307 288 296 296 300 302 301 297 305 305 300 295 291 292 290 294 293 293 291 292 288 295 294 292 288 283
311 311 312 311 311 311 311 311 312 312 312 311 310 310 310 309 302 304 305 308 308 303 282 297 297 305 301 297 299 301 305 300 293 292 291 288 290 291 291 292 295 291 295 293 292 287 284
311 310 311 311 312 312 311 311 311 311 311 311 310 310 309 309 306 309 310 309 306 290 283 292 298 296 295 298 299 301 300 301 299 293 293 292 297 294 295 296 295 297 293 292 290 284 279
310 309 310 312 312 312 311 311 311 311 311 310 310 309 307 308 304 312 308 303 288 286 297 292 293 296 294 294 296 297 295 291 289 285 285 291 291 294 297 291 294 292 288 279 276 276 277
309 309 311 311 312 311 311 310 310 310 310 309 307 306 309 310 310 310 304 294 284 294 292 297 295 294 292 295 295 295 292 289 295 291 285 283 281 290 296 291 288 288 286 280 275 275 278
310 310 311 312 311 311 311 310 310 309 308 306 305 308 308 312 313 308 297 287 289 293 295 293 293 291 291 294 293 292 290 290 293 293 284 282 285 294 295 294 291 287 284 287 282 283 280
309 311 311 311 311 311 310 310 309 308 306 305 300 305 308 313 311 303 293 291 294 296 295 294 288 293 287 290 289 289 289 295 293 295 294 289 282 291 293 295 294 291 292 282 284 274 275
310 311 311 311 310 310 310 309 308 307 305 305 301 302 308 309 307 298 288 292 296 298 297 293 291 290 290 289 289 288 289 293 296 295 295 291 286 287 291 288 287 288 286 288 287 284 277
310 311 311 310 310 309 309 309 308 306 304 303 301 296 308 307 293 297 292 296 299 298 299 296 296 294 292 292 289 289 289 293 298 296 290 292 287 282 286 291 295 292 288 289 282 280 282
310 310 310 309 309 307 307 307 308 307 304 300 298 300 309 306 290 290 296 296 298 296 296 295 293 295 295 291 287 292 292 297 298 295 292 292 285 279 281 285 291 288 290 290 288 287 282
310 310 309 308 307 306 306 306 306 306 304 301 300 294 299 299 298 293 292 292 293 300 297 296 295 295 293 290 291 289 290 296 297 296 301 297 287 283 279 283 286 285 288 290 286 280 283
310 309 308 306 305 305 305 305 305 305 304 302 301 294 295 288 289 292 294 294 292 294 297 296 293 292 290 286 288 288 290 291 295 298 295 292 285 288 289 290 290 289 288 289 287 287 284
309 309 307 305 304 304 304 305 305 305 304 302 293 292 294 291 294 292 294 293 292 293 292 291 289 292 291 287 289 286 289 290 289 293 291 294 286 289 286 290 289 287 289 290 290 290 289
309 307 305 304 304 304 303 304 305 305 303 299 300 300 294 292 291 289 290 291 292 293 295 295 292 290 289 291 295 295 295 294 293 291 291 291 288 286 282 288 287 282 287 289 291 292 290
308 306 304 304 303 302 302 302 304 304 304 298 299 300 293 287 290 290 291 292 292 292 290 294 294 292 295 300 298 297 295 295 295 295 295 290 288 287 282 284 275 287 293 294 292 293 292
307 305 304 303 302 302 302 302 302 303 304 298 298 297 293 288 291 291 293 292 293 293 291 292 295 298 299 295 290 287 289 289 294 296 295 294 290 283 279 278 285 288 293 291 289 288 296
306 304 303 302 302 302 302 302 302 302 302 298 298 300 298 291 288 295 291 293 288 290 290 293 296 299 296 293 289 283 278 288 288 291 297 294 293 286 282 276 273 287 296 297 294 282 296
305 303 302 302 301 301 302 302 302 302 302 299 297 300 297 291 293 294 289 289 292 291 290 291 293 291 296 290 287 281 283 290 282 283 287 288 287 283 282 280 284 295 297 297 283 283 296
304 302 302 301 301 301 301 302 302 302 302 300 297 300 298 292 293 296 296 292 292 292 289 292 290 291 291 288 288 288 284 287 285 289 286 282 283 283 285 282 278 299 296 288 291 296 296
303 302 301 301 301 301 301 302 302 302 302 302 294 300 301 295 294 299 298 298 297 296 292 294 292 291 292 289 291 288 286 288 286 282 292 283 289 287 287 286 297 300 298 298 299 297 297
Wind_Speed
16 16 17 17 18 18 18 18 18 19 19 19 19 20 20 21 21 21 21 20 19 20 20 19 18 16 10 4 7 10 15 14 8 6 12 5 5 5 7 6 11 18 16 17 18 18 18
17 17 18 18 18 18 19 19 19 19 20 20 21 20 22 22 22 22 19 19 19 19 20 18 15 13 4 5 7 12 12 12 11 2 5 6 6 9 4 6 7 8 13 14 16 19 20
17 17 18 19 19 19 20 20 20 20 20 20 21 21 22 24 23 23 21 19 18 20 20 17 12 6 6 13 2 3 7 2 4 5 2 5 7 8 10 9 7 14 14 16 15 14 14
17 18 18 18 18 19 21 21 22 22 22 22 21 23 23 24 24 24 23 20 20 20 20 17 7 5 8 3 3 6 6 7 7 7 3 6 6 5 5 7 8 10 8 7 2 8 12
18 19 19 20 20 21 22 22 23 22 23 23 24 23 25 26 25 24 22 22 23 20 15 9 4 4 8 0 3 3 3 6 6 6 7 9 2 3 5 6 6 5 10 12 16 11 13
19 19 19 19 20 21 21 20 20 21 23 23 22 23 25 26 26 23 21 24 15 7 7 7 8 4 7 4 3 4 8 2 5 5 7 6 4 5 3 3 5 7 11 13 19 5 9
18 18 18 19 20 21 20 20 21 21 22 24 24 24 24 24 23 18 11 6 2 1 5 8 5 8 15 1 2 4 3 3 7 5 4 7 5 6 11 10 12 13 17 17 20 12 13
18 18 19 21 22 21 21 22 21 22 23 24 25 25 26 26 23 18 4 4 8 6 8 12 15 17 9 3 3 8 5 4 4 7 8 6 6 8 14 14 14 14 15 18 17 13 14
19 19 20 21 22 22 21 23 22 22 23 23 24 25 25 26 24 7 5 3 6 8 4 11 14 6 7 7 9 8 8 2 5 7 9 6 9 14 15 13 16 14 14 16 20 14 12
18 19 21 22 21 20 22 23 23 24 24 24 24 25 24 27 6 4 2 6 6 6 2 6 5 3 5 6 7 12 5 3 1 7 9 9 11 13 12 16 15 17 15 20 19 10 10
20 20 20 20 19 20 20 22 24 25 25 25 25 26 25 13 8 6 3 5 4 3 2 6 7 5 3 5 6 6 8 5 8 14 8 13 12 4 11 9 11 16 14 21 24 10 9
20 20 20 19 20 20 21 22 23 25 25 26 27 26 22 2 4 10 8 8 2 1 3 5 7 5 8 8 10 1 5 8 9 12 12 8 6 4 3 10 10 16 9 15 16 3 12
20 21 19 19 20 21 22 23 23 25 26 28 29 28 14 5 5 10 7 5 2 2 3 7 7 10 10 12 10 3 3 7 9 3 5 7 5 3 3 6 16 12 4 5 5 4 12
20 20 19 20 21 21 21 23 23 24 26 29 32 29 4 6 8 7 5 2 1 7 10 12 12 14 15 14 3 7 5 7 3 2 4 4 6 8 4 10 15 10 5 5 6 9 14
17 18 19 21 21 21 22 22 24 24 27 30 27 4 2 4 8 5 3 1 2 9 10 12 13 11 6 17 10 9 8 8 10 14 5 5 5 16 16 12 10 14 6 6 3 3 2
17 18 20 20 21 21 22 21 23 26 28 31 6 4 1 4 4 2 2 4 5 11 12 7 8 8 11 11 10 10 8 7 9 13 6 4 9 7 15 14 9 9 8 8 3 5 6
18 18 19 20 20 20 20 21 23 26 29 32 2 2 2 3 3 1 1 4 9 10 7 3 8 10 10 10 7 8 6 10 11 8 9 9 4 8 9 5 6 9 5 4 3 5 4
18 18 18 20 19 19 20 21 22 24 28 10 4 1 3 0 1 3 3 11 14 14 5 6 5 6 7 8 8 12 8 9 9 6 8 5 5 5 15 17 7 6 6 5 3 5 4
17 18 17 18 19 20 21 22 23 22 19 7 6 3 3 3 2 4 8 13 17 6 2 3 5 8 9 9 6 2 5 9 7 5 5 1 4 5 7 3 1 1 9 5 4 1 7
17 17 16 18 18 19 20 22 24 23 20 5 4 4 4 2 4 6 8 7 12 12 11 3 4 6 6 6 8 6 13 8 8 9 10 4 5 7 9 13 12 17 19 16 9 3 12
16 16 17 19 19 19 19 21 24 26 27 4 3 4 4 5 5 11 8 8 12 12 10 10 8 12 10 2 9 11 10 18 15 7 3 2 5 9 14 18 18 19 21 17 14 13 15
16 14 17 18 19 19 19 19 21 25 31 1 4 4 5 7 8 9 9 5 9 11 9 8 8 11 12 8 10 17 14 11 7 8 3 3 7 9 18 18 18 21 16 18 12 9 11
13 15 16 16 17 18 18 18 18 20 19 4 5 5 2 6 6 5 4 11 14 11 2 4 9 12 13 14 16 10 12 14 13 14 11 3 4 5 10 11 14 13 6 2 1 4 11
12 15 15 15 16 16 16 16 16 16 12 4 5 4 3 6 7 8 18 16 13 15 14 10 8 13 10 8 12 13 17 19 19 18 8 6 2 3 6 8 4 5 3 7 4 3 11
13 14 15 14 15 16 15 14 14 13 13 5 5 3 2 6 7 18 11 12 11 9 10 13 11 9 8 7 7 7 4 2 5 6 11 7 4 3 3 4 14 12 6 5 5 3 5
11 13 13 14 14 15 15 14 13 13 13 5 8 7 1 4 5 9 14 13 6 10 9 8 16 10 5 3 3 4 3 5 4 3 7 7 3 2 3 3 5 4 4 6 2 2 7
10 11 13 14 15 14 15 15 13 13 12 6 6 6 4 5 11 8 5 9 8 9 10 10 6 7 6 2 2 4 4 5 3 2 5 3 2 7 7 6 8 1 7 7 4 7 8
10 10 12 14 14 15 15 16 15 13 12 6 7 9 5 6 14 22 20 17 9 6 6 4 6 3 3 3 3 3 3 3 3 4 4 6 3 4 4 4 7 4 4 3 8 13 11
11 10 11 13 14 14 15 16 17 15 13 8 5 6 8 6 10 18 23 24 24 24 12 4 4 2 3 3 3 4 4 4 5 5 4 4 6 3 6 6 5 5 9 11 10 14 15
Wind_Direction
12 10 8 6 2 360 359 357 354 352 349 346 343 339 334 330 328 326 324 322 319 315 313 314 320 323 332 244 244 177 201 225 253 232 236 273 331 289 246 263 244 249 264 271 270 271 266
7 5 4 3 0 358 357 354 351 349 347 344 343 338 334 330 325 322 320 316 314 312 311 311 316 318 235 270 147 173 202 222 214 303 310 328 299 318 304 304 300 301 288 281 271 261 260
6 4 3 2 359 357 355 353 351 349 346 343 341 336 330 328 324 321 317 314 311 310 308 310 310 287 259 252 324 274 243 265 264 277 17 310 346 13 342 327 304 320 310 304 281 273 274
6 4 3 0 360 358 356 354 352 349 345 342 338 335 331 327 321 318 313 310 307 303 303 306 298 284 258 226 334 291 5 327 329 351 299 298 229 224 252 270 298 300 283 282 14 267 281
4 2 1 0 359 358 355 353 352 348 344 340 338 333 329 326 322 318 312 305 295 288 286 284 258 204 273 166 227 53 351 289 339 294 334 290 181 230 300 285 315 251 269 268 272 247 263
2 1 1 359 358 355 353 351 349 345 343 339 332 327 330 327 323 321 315 292 277 313 245 236 255 265 275 241 97 308 265 205 290 293 292 228 219 197 247 186 238 247 269 281 280 248 247
0 359 356 357 355 353 349 346 340 337 335 334 332 328 327 326 326 327 335 343 9 321 238 246 227 233 293 150 68 281 297 4 267 272 273 312 352 282 270 268 274 287 291 292 296 320 327
357 356 354 353 352 350 347 344 337 334 333 331 330 329 330 329 328 323 290 271 20 271 305 276 263 261 274 1 276 283 315 203 306 302 304 331 286 288 314 313 311 302 290 277 281 290 293
356 354 353 350 349 346 341 344 339 335 332 331 330 330 330 328 322 304 231 337 307 37 301 294 220 232 201 191 248 260 253 347 320 334 310 298 290 302 301 304 292 289 282 282 283 292 276
352 351 349 347 345 342 340 338 336 334 333 331 329 329 329 330 320 287 305 344 11 57 300 182 171 173 174 209 243 228 144 161 287 278 273 273 279 292 338 319 320 298 294 302 303 304 276
350 348 347 344 342 340 339 336 334 332 330 328 328 327 327 321 300 302 315 359 43 58 41 185 128 156 217 216 271 296 141 148 229 249 263 262 283 9 286 316 348 301 307 295 295 287 311
349 350 343 340 341 342 338 335 333 330 328 325 327 325 331 346 196 256 328 329 12 328 281 137 148 211 210 242 279 194 220 190 227 248 256 290 342 312 84 332 304 284 280 301 278 254 267
352 350 341 341 339 339 336 334 334 331 328 326 325 321 318 287 259 322 345 326 24 228 222 39 353 355 324 289 276 212 313 282 276 45 331 315 301 336 119 313 316 319 61 343 327 316 270
352 349 342 341 339 338 339 334 334 331 329 327 326 316 239 241 287 325 344 344 323 301 16 4 350 312 279 286 249 3 332 302 125 183 232 277 309 292 262 303 294 296 228 183 265 272 283
349 341 341 341 339 340 340 338 335 335 332 326 319 307 260 246 254 28 10 4 236 347 18 357 329 311 349 1 3 343 342 318 26 37 23 357 302 328 319 318 315 295 273 256 322 345 310
345 340 341 340 340 342 341 341 341 339 335 325 315 281 255 167 96 15 36 285 306 41 6 358 308 357 346 337 343 349 342 14 11 15 51 350 312 316 301 321 299 343 308 295 68 261 241
341 342 341 344 343 344 345 345 344 343 338 323 225 260 175 287 77 336 215 268 306 335 338 336 308 314 307 312 340 315 312 314 25 356 350 331 215 296 306 279 322 341 9 22 177 220 278
339 340 343 346 345 347 343 341 343 346 343 345 312 329 215 188 3 217 263 323 337 318 39 299 296 284 321 332 310 309 314 330 37 5 322 56 272 276 292 290 146 206 222 177 153 285 294
336 340 347 348 350 348 345 343 341 345 5 320 315 254 267 110 339 330 311 344 306 332 331 310 294 319 337 312 313 324 284 289 46 358 0 337 308 318 302 299 92 28 293 251 206 151 250
337 338 345 348 349 350 350 346 345 343 347 327 295 346 346 324 345 4 353 311 331 304 295 289 245 286 303 340 322 304 318 315 338 303 333 289 213 229 263 268 275 285 282 282 236 237 270
335 338 346 347 349 352 352 349 347 345 340 321 307 5 16 313 335 312 286 290 294 330 15 359 349 339 321 321 308 291 314 317 305 309 330 215 251 257 265 282 285 285 289 309 292 266 287
334 341 346 345 348 352 354 354 354 348 338 165 19 7 347 292 297 288 283 292 329 328 345 317 287 338 341 322 294 291 284 284 261 287 289 253 267 292 282 279 277 281 280 280 290 353 302
330 340 341 345 347 351 354 356 358 1 350 348 11 348 335 283 298 333 323 342 317 321 296 270 306 310 303 288 287 296 288 281 262 272 281 310 278 299 273 279 315 293 245 62 316 317 285
332 337 338 343 346 347 351 354 357 0 8 324 313 321 310 284 316 304 319 301 322 320 308 313 307 288 288 327 308 286 265 260 253 246 159 199 290 271 290 313 246 248 264 295 336 359 326
334 333 333 340 342 341 344 349 353 351 353 325 299 300 294 286 300 296 339 324 315 329 329 316 310 333 349 331 299 297 288 346 241 213 194 160 155 277 273 293 275 287 360 34 59 309 82
327 329 328 332 338 335 335 339 343 344 344 320 296 289 207 300 251 305 318 296 294 321 311 302 330 326 310 262 258 270 275 278 280 108 131 142 188 198 323 274 270 272 316 8 348 290 81
321 324 323 326 329 331 329 329 336 333 333 320 283 307 282 265 273 265 300 311 307 296 286 310 346 314 325 257 252 246 250 295 338 6 171 205 214 226 236 237 276 29 51 8 8 211 105
312 318 320 320 322 325 326 324 327 324 326 325 289 289 280 275 279 267 273 269 278 283 280 321 342 4 314 277 279 308 315 308 340 284 270 187 231 206 215 244 270 135 85 167 248 291 283
303 310 313 313 314 317 319 320 320 319 312 313 277 301 321 266 269 301 282 266 256 254 260 238 240 37 270 304 358 323 321 299 315 281 296 288 182 209 210 228 284 302 261 251 254 269 288